Time,TemperatureF,DewpointF,PressureIn,WindDirection,WindDirectionDegrees,WindSpeedMPH,WindSpeedGustMPH,Humidity,HourlyPrecipIn,Conditions,Clouds,dailyrainin,SolarRadiationWatts/m^2,SoftwareType,DateUTC
2013-05-13 00:01:00,25.0,22.0,-100.00,West,271,0.0,2.0,87,0.00,,,0.06,0.000000,,2013-05-13 05:01:00,
2013-05-13 00:32:00,25.0,22.0,-100.00,West,271,0.0,2.0,87,0.00,,,0.06,0.000000,,2013-05-13 05:32:00,
2013-05-13 00:42:00,25.0,22.0,-100.00,West,271,0.0,2.0,87,0.00,,,0.06,0.000000,,2013-05-13 05:42:00,
2013-05-13 00:52:00,25.0,22.0,-100.00,West,271,0.0,2.0,87,0.00,,,0.06,0.000000,,2013-05-13 05:52:00,
2013-05-13 01:01:00,24.0,21.0,-100.00,West,265,0.0,2.0,89,0.00,,,0.06,0.000000,,2013-05-13 06:01:00,
2013-05-13 01:22:00,24.0,21.0,-100.00,West,265,0.0,2.0,89,0.00,,,0.06,0.000000,,2013-05-13 06:22:00,
2013-05-13 01:32:00,24.0,21.0,-100.00,West,265,0.0,2.0,89,0.00,,,0.06,0.000000,,2013-05-13 06:32:00,
2013-05-13 01:42:00,24.0,21.0,-100.00,West,265,0.0,2.0,89,0.00,,,0.06,0.000000,,2013-05-13 06:42:00,
2013-05-13 01:52:00,24.0,21.0,-100.00,West,265,0.0,2.0,89,0.00,,,0.06,0.000000,,2013-05-13 06:52:00,
2013-05-13 02:01:00,23.0,21.0,-100.00,WSW,255,0.0,0.0,92,0.00,,,0.06,0.000000,,2013-05-13 07:01:00,
2013-05-13 02:32:00,23.0,21.0,-100.00,WSW,255,0.0,0.0,92,0.00,,,0.06,0.000000,,2013-05-13 07:32:00,
2013-05-13 02:42:00,23.0,21.0,-100.00,WSW,255,0.0,0.0,92,0.00,,,0.06,0.000000,,2013-05-13 07:42:00,
2013-05-13 02:52:00,23.0,21.0,-100.00,WSW,255,0.0,0.0,92,0.00,,,0.06,0.000000,,2013-05-13 07:52:00,
2013-05-13 03:01:00,22.0,20.0,-100.00,WSW,254,0.0,0.0,92,0.00,,,0.06,0.000000,,2013-05-13 08:01:00,
2013-05-13 03:22:00,22.0,20.0,-100.00,WSW,254,0.0,0.0,92,0.00,,,0.06,0.000000,,2013-05-13 08:22:00,
2013-05-13 03:32:00,22.0,20.0,-100.00,WSW,254,0.0,0.0,92,0.00,,,0.06,0.000000,,2013-05-13 08:32:00,
2013-05-13 03:42:00,22.0,20.0,-100.00,WSW,254,0.0,0.0,92,0.00,,,0.06,0.000000,,2013-05-13 08:42:00,
2013-05-13 03:52:00,22.0,20.0,-100.00,WSW,254,0.0,0.0,92,0.00,,,0.06,0.000000,,2013-05-13 08:52:00,
2013-05-13 04:01:00,21.0,19.0,-100.00,WSW,258,0.0,0.0,92,0.00,,,0.06,0.000000,,2013-05-13 09:01:00,
2013-05-13 04:33:00,21.0,19.0,-100.00,WSW,258,0.0,0.0,92,0.00,,,0.06,0.000000,,2013-05-13 09:33:00,
2013-05-13 04:42:00,21.0,19.0,-100.00,WSW,258,0.0,0.0,92,0.00,,,0.06,0.000000,,2013-05-13 09:42:00,
2013-05-13 04:52:00,21.0,19.0,-100.00,WSW,258,0.0,0.0,92,0.00,,,0.06,0.000000,,2013-05-13 09:52:00,
2013-05-13 05:01:00,21.0,19.0,-100.00,SW,227,1.0,3.0,92,0.00,,,0.06,0.000000,,2013-05-13 10:01:00,
2013-05-13 05:22:00,21.0,19.0,-100.00,SW,227,1.0,3.0,92,0.00,,,0.06,0.000000,,2013-05-13 10:22:00,
2013-05-13 05:33:00,21.0,19.0,-100.00,SW,227,1.0,3.0,92,0.00,,,0.06,0.000000,,2013-05-13 10:33:00,
2013-05-13 05:43:00,21.0,19.0,-100.00,SW,227,1.0,3.0,92,0.00,,,0.06,0.000000,,2013-05-13 10:43:00,
2013-05-13 05:52:00,21.0,19.0,-100.00,SW,227,1.0,3.0,92,0.00,,,0.06,0.000000,,2013-05-13 10:52:00,
2013-05-13 06:01:00,21.0,18.0,-100.00,WSW,244,0.0,2.0,89,0.00,,,0.06,11.000000,,2013-05-13 11:01:00,
2013-05-13 06:22:00,21.0,18.0,-100.00,WSW,244,0.0,2.0,89,0.00,,,0.06,11.000000,,2013-05-13 11:22:00,
2013-05-13 06:32:00,21.0,18.0,-100.00,WSW,244,0.0,2.0,89,0.00,,,0.06,11.000000,,2013-05-13 11:32:00,
2013-05-13 06:42:00,21.0,18.0,-100.00,WSW,244,0.0,2.0,89,0.00,,,0.06,11.000000,,2013-05-13 11:42:00,
2013-05-13 06:52:00,21.0,18.0,-100.00,WSW,244,0.0,2.0,89,0.00,,,0.06,11.000000,,2013-05-13 11:52:00,
2013-05-13 07:01:00,32.0,27.0,-100.00,SSW,206,0.0,0.0,82,0.00,,,0.06,149.000000,,2013-05-13 12:01:00,
2013-05-13 07:32:00,32.0,27.0,-100.00,SSW,206,0.0,0.0,82,0.00,,,0.06,149.000000,,2013-05-13 12:32:00,
2013-05-13 07:42:00,32.0,27.0,-100.00,SSW,206,0.0,0.0,82,0.00,,,0.06,149.000000,,2013-05-13 12:42:00,
2013-05-13 07:52:00,32.0,27.0,-100.00,SSW,206,0.0,0.0,82,0.00,,,0.06,149.000000,,2013-05-13 12:52:00,
2013-05-13 08:01:00,39.0,20.0,-100.00,SW,233,4.0,6.0,47,0.00,,,0.06,331.000000,,2013-05-13 13:01:00,
2013-05-13 08:32:00,39.0,20.0,-100.00,SW,233,4.0,6.0,47,0.00,,,0.06,331.000000,,2013-05-13 13:32:00,
2013-05-13 08:42:00,39.0,20.0,-100.00,SW,233,4.0,6.0,47,0.00,,,0.06,331.000000,,2013-05-13 13:42:00,
2013-05-13 08:52:00,39.0,20.0,-100.00,SW,233,4.0,6.0,47,0.00,,,0.06,331.000000,,2013-05-13 13:52:00,
2013-05-13 10:01:00,47.0,16.0,-100.00,WNW,289,6.0,11.0,29,-99.99,,,0.01,689.000000,,2013-05-13 15:01:00,
2013-05-13 10:32:00,47.0,16.0,-100.00,WNW,289,6.0,11.0,29,-99.99,,,0.01,689.000000,,2013-05-13 15:32:00,
2013-05-13 10:42:00,47.0,16.0,-100.00,WNW,289,6.0,11.0,29,-99.99,,,0.01,689.000000,,2013-05-13 15:42:00,
2013-05-13 10:53:00,47.0,16.0,-100.00,WNW,289,6.0,11.0,29,-99.99,,,0.01,689.000000,,2013-05-13 15:53:00,
2013-05-13 11:01:00,49.0,16.0,-100.00,South,178,6.0,15.0,27,0.00,,,0.00,833.000000,,2013-05-13 16:01:00,
2013-05-13 11:22:00,49.0,16.0,-100.00,South,178,6.0,15.0,27,0.00,,,0.00,833.000000,,2013-05-13 16:22:00,
2013-05-13 11:34:00,49.0,16.0,-100.00,South,178,6.0,15.0,27,0.00,,,0.00,833.000000,,2013-05-13 16:34:00,
2013-05-13 11:43:00,49.0,16.0,-100.00,South,178,6.0,15.0,27,0.00,,,0.00,833.000000,,2013-05-13 16:43:00,
2013-05-13 11:53:00,49.0,16.0,-100.00,South,178,6.0,15.0,27,0.00,,,0.00,833.000000,,2013-05-13 16:53:00,
2013-05-13 12:01:00,51.0,18.0,-100.00,North,-999,0.0,12.0,27,0.00,,,0.00,960.000000,,2013-05-13 17:01:00,
2013-05-13 12:32:00,51.0,18.0,-100.00,North,-999,0.0,12.0,27,0.00,,,0.00,960.000000,,2013-05-13 17:32:00,
2013-05-13 12:42:00,51.0,18.0,-100.00,North,-999,0.0,12.0,27,0.00,,,0.00,960.000000,,2013-05-13 17:42:00,
2013-05-13 12:54:00,51.0,18.0,-100.00,North,-999,0.0,12.0,27,0.00,,,0.00,960.000000,,2013-05-13 17:54:00,
2013-05-13 14:01:00,55.0,17.0,-100.00,SSW,205,9.0,15.0,22,-99.99,,,0.00,766.000000,,2013-05-13 19:01:00,
2013-05-13 14:32:00,55.0,17.0,-100.00,SSW,205,9.0,15.0,22,-99.99,,,0.00,766.000000,,2013-05-13 19:32:00,
2013-05-13 14:44:00,55.0,17.0,-100.00,SSW,205,9.0,15.0,22,-99.99,,,0.00,766.000000,,2013-05-13 19:44:00,
2013-05-13 14:53:00,55.0,17.0,-100.00,SSW,205,9.0,15.0,22,-99.99,,,0.00,766.000000,,2013-05-13 19:53:00,
2013-05-13 15:01:00,57.0,19.0,-100.00,SW,214,6.0,15.0,22,0.00,,,0.00,537.000000,,2013-05-13 20:01:00,
2013-05-13 15:23:00,57.0,19.0,-100.00,SW,214,6.0,15.0,22,0.00,,,0.00,537.000000,,2013-05-13 20:23:00,
2013-05-13 15:34:00,57.0,19.0,-100.00,SW,214,6.0,15.0,22,0.00,,,0.00,537.000000,,2013-05-13 20:34:00,
2013-05-13 15:44:00,57.0,19.0,-100.00,SW,214,6.0,15.0,22,0.00,,,0.00,537.000000,,2013-05-13 20:44:00,
2013-05-13 15:53:00,57.0,19.0,-100.00,SW,214,6.0,15.0,22,0.00,,,0.00,537.000000,,2013-05-13 20:53:00,
2013-05-13 16:01:00,57.0,21.0,-100.00,WSW,241,5.0,13.0,24,0.00,,,0.00,375.000000,,2013-05-13 21:01:00,
2013-05-13 16:23:00,57.0,21.0,-100.00,WSW,241,5.0,13.0,24,0.00,,,0.00,375.000000,,2013-05-13 21:23:00,
2013-05-13 16:34:00,57.0,21.0,-100.00,WSW,241,5.0,13.0,24,0.00,,,0.00,375.000000,,2013-05-13 21:34:00,
2013-05-13 16:43:00,57.0,21.0,-100.00,WSW,241,5.0,13.0,24,0.00,,,0.00,375.000000,,2013-05-13 21:43:00,
2013-05-13 16:53:00,57.0,21.0,-100.00,WSW,241,5.0,13.0,24,0.00,,,0.00,375.000000,,2013-05-13 21:53:00,
2013-05-13 17:01:00,56.0,22.0,-100.00,SSW,207,5.0,13.0,26,0.00,,,0.00,162.000000,,2013-05-13 22:01:00,
2013-05-13 17:32:00,56.0,22.0,-100.00,SSW,207,5.0,13.0,26,0.00,,,0.00,162.000000,,2013-05-13 22:32:00,
2013-05-13 17:43:00,56.0,22.0,-100.00,SSW,207,5.0,13.0,26,0.00,,,0.00,162.000000,,2013-05-13 22:43:00,
2013-05-13 17:52:00,56.0,22.0,-100.00,SSW,207,5.0,13.0,26,0.00,,,0.00,162.000000,,2013-05-13 22:52:00,
2013-05-13 18:01:00,56.0,25.0,-100.00,SSW,207,6.0,12.0,30,0.00,,,0.00,135.000000,,2013-05-13 23:01:00,
2013-05-13 18:23:00,56.0,25.0,-100.00,SSW,207,6.0,12.0,30,0.00,,,0.00,135.000000,,2013-05-13 23:23:00,
2013-05-13 18:34:00,56.0,25.0,-100.00,SSW,207,6.0,12.0,30,0.00,,,0.00,135.000000,,2013-05-13 23:34:00,
2013-05-13 18:42:00,56.0,25.0,-100.00,SSW,207,6.0,12.0,30,0.00,,,0.00,135.000000,,2013-05-13 23:42:00,
2013-05-13 18:54:00,56.0,25.0,-100.00,SSW,207,6.0,12.0,30,0.00,,,0.00,135.000000,,2013-05-13 23:54:00,
2013-05-13 19:01:00,55.0,26.0,-100.00,SSW,208,10.0,17.0,33,0.00,,,0.00,101.000000,,2013-05-14 00:01:00,
2013-05-13 19:22:00,55.0,26.0,-100.00,SSW,208,10.0,17.0,33,0.00,,,0.00,101.000000,,2013-05-14 00:22:00,
2013-05-13 19:32:00,55.0,26.0,-100.00,SSW,208,10.0,17.0,33,0.00,,,0.00,101.000000,,2013-05-14 00:32:00,
2013-05-13 19:42:00,55.0,26.0,-100.00,SSW,208,10.0,17.0,33,0.00,,,0.00,101.000000,,2013-05-14 00:42:00,
2013-05-13 19:52:00,55.0,26.0,-100.00,SSW,208,10.0,17.0,33,0.00,,,0.00,101.000000,,2013-05-14 00:52:00,
2013-05-13 20:01:00,53.0,27.0,-100.00,SSW,198,6.0,14.0,37,0.00,,,0.00,24.000000,,2013-05-14 01:01:00,
2013-05-13 20:32:00,53.0,27.0,-100.00,SSW,198,6.0,14.0,37,0.00,,,0.00,24.000000,,2013-05-14 01:32:00,
2013-05-13 20:43:00,53.0,27.0,-100.00,SSW,198,6.0,14.0,37,0.00,,,0.00,24.000000,,2013-05-14 01:43:00,
2013-05-13 20:53:00,53.0,27.0,-100.00,SSW,198,6.0,14.0,37,0.00,,,0.00,24.000000,,2013-05-14 01:53:00,
2013-05-13 21:01:00,52.0,28.0,-100.00,South,175,7.0,13.0,39,0.00,,,0.00,1.000000,,2013-05-14 02:01:00,
2013-05-13 21:22:00,52.0,28.0,-100.00,South,175,7.0,13.0,39,0.00,,,0.00,1.000000,,2013-05-14 02:22:00,
2013-05-13 21:32:00,52.0,28.0,-100.00,South,175,7.0,13.0,39,0.00,,,0.00,1.000000,,2013-05-14 02:32:00,
2013-05-13 21:42:00,52.0,28.0,-100.00,South,175,7.0,13.0,39,0.00,,,0.00,1.000000,,2013-05-14 02:42:00,
2013-05-13 21:52:00,52.0,28.0,-100.00,South,175,7.0,13.0,39,0.00,,,0.00,1.000000,,2013-05-14 02:52:00,
2013-05-13 22:01:00,52.0,29.0,-100.00,SSW,193,6.0,13.0,41,0.00,,,0.00,0.000000,,2013-05-14 03:01:00,
2013-05-13 22:21:00,52.0,29.0,-100.00,SSW,193,6.0,13.0,41,0.00,,,0.00,0.000000,,2013-05-14 03:21:00,
2013-05-13 22:33:00,52.0,29.0,-100.00,SSW,193,6.0,13.0,41,0.00,,,0.00,0.000000,,2013-05-14 03:33:00,
2013-05-13 22:43:00,52.0,29.0,-100.00,SSW,193,6.0,13.0,41,0.00,,,0.00,0.000000,,2013-05-14 03:43:00,
2013-05-13 22:53:00,52.0,29.0,-100.00,SSW,193,6.0,13.0,41,0.00,,,0.00,0.000000,,2013-05-14 03:53:00,
2013-05-13 23:01:00,52.0,28.0,-100.00,SSW,203,9.0,16.0,40,0.00,,,0.00,0.000000,,2013-05-14 04:01:00,
2013-05-13 23:32:00,52.0,28.0,-100.00,SSW,203,9.0,16.0,40,0.00,,,0.00,0.000000,,2013-05-14 04:32:00,
2013-05-13 23:43:00,52.0,28.0,-100.00,SSW,203,9.0,16.0,40,0.00,,,0.00,0.000000,,2013-05-14 04:43:00,
2013-05-13 23:53:00,52.0,28.0,-100.00,SSW,203,9.0,16.0,40,0.00,,,0.00,0.000000,,2013-05-14 04:53:00,